星链-5625 (STARLINK-5625 )

导读 | 星芒AI

STARLINK-5625 是 SpaceX Starlink 项目中的一颗低轨通信卫星,属于第二代 Starlink 卫星(Gen2)批次。该卫星旨在为全球用户提供高速、低延迟的互联网服务,支持偏远地区的网络接入。它运行在约 540 公里的轨道高度,采用先进通信技术,具备更高的带宽和更广的覆盖能力。作为 Starlink 卫星群的一部分,STARLINK-5625 有助于提升整体网络性能,并推动 SpaceX 实现全球宽带覆盖的目标。

基本信息
目录编号:
55368
目录名称:
STARLINK-5625
国际标识:
2023-013AP
轨道中心:
EARTH
卫星名称:
星链-5625
卫星全名:
星链-5625 (STARLINK-5625 )
卫星状态:
在轨 (已飞行1060 天)
发射日期:
2023-01-26 UTC
国别 :
美国 (US)
星等 :
--
轨道信息
数据来源 国际轨道数据
星历时间: 2025-12-21T09:27:20+0800
13小时前
查看轨道信息
半长轴: 6937.211km
偏心率: 0.0001254
轨道倾角: 43.006°
近地点辐角 266.066°
升交点赤经 354.393°
平近点角 94.004°
近地点: 558.204km
远地点: 559.944km
周期: 95.838分钟
每日圈数: 15.02538
详细信息
固有亮度:
5
最大亮度:
2.5
卫星平台:
Starlink v1.5
覆盖范围:
全球
运营商:
太空探索技术公司
运营商所在国:
美国
制造商(研发单位):
太空探索技术公司
制造商所在国:
美国
使用方式:
暂无
卫星简介
星链(Starlink)计划是由太空探索技术公司(SpaceX)提出的一个巨型低轨卫星互联网星座项目,计划在2019年至2024年间在太空搭建由约1.2万颗卫星组成的“星链”网络,其中1584颗将部署在地球上空550千米处的近地轨道,并从2020年开始工作。该卫星仍在工作。
2D轨道图
3D轨道图
轨道高度分析图
轨道倾角分析图
轨道综合分析图
查看轨道综合分析图